Regional Weather Roundup
Issued by NWS

Home | Current Version | Previous Version | Text Only | Print | Product List | Glossary On
Versions: 1 2 3 4 5 6 7 8 9 10 11 12 13 14 15 16 17 18 19 20 21 22 23 24 25 26 27 28 29 30 31 32 33 34 35 36 37 38 39 40 41 42 43 44 45 46 47 48 49 50
000
ASUS42 KTBW 290417
RWRFL
FLORIDA REGIONAL WEATHER ROUNDUP
NATIONAL WEATHER SERVICE TAMPA BAY RUSKIN FL
1200 AM EDT FRI JUL 29 2016

NOTE: "FAIR" INDICATES FEW OR NO CLOUDS BELOW 12,000 FEET WITH NO
SIGNIFICANT WEATHER AND/OR OBSTRUCTIONS TO VISIBILITY.

FLZ001>010-012>015-112-114-115-290500-
PANHANDLE FLORIDA

CITY           SKY/WX    TMP DP  RH WIND       PRES   REMARKS
PENSACOLA      CLEAR     83  76  79 SW6       30.03F
PENSACOLA NAS  CLEAR     80  75  84 CALM      30.02F
MILTON NAS     CLEAR     79  76  90 SW5       30.03R
CRESTVIEW      CLEAR     78  75  90 CALM      30.05F
DUKE FIELD     CLEAR     81  75  81 SW6       30.04S
VALPARAISO     PTCLDY    83  76  78 CALM      30.04S
MARY ESTHER    CLEAR     85  74  70 CALM      30.02R
TRI COUNTY     FAIR      79  75  87 CALM      30.05
PANAMA CITY    FAIR      78  76  93 CALM      30.03S
TYNDALL AFB    PTCLDY    84  74  72 W3        30.05R
APALACHICOLA   CLEAR     80  77  90 CALM      30.05R

STATION/POSITION SKY/WX   TEMP    WIND        PRES    WAVE   SWELL
                          AIR SEA DIR/SP/G            HT/PER HT/PER
                          (F)     (DEG/KT/KT) (MB)    (FT/S) (FT/S)
30.1N   87.6W              86 87  210/  6/  8 1016.8F   1/ 6   2/ 6
29.2N   88.2W              85 88  160/  8/  8 1016.8F
28.8N   86.0W              86 87  170/  6/  6 1018.0R   1/ 5   2/ 5
PANAMA CITY BEAC              89  250/ 10/ 11   N/A
TOWER C                    85     260/  6/  7 1018.4R
28.5N   84.5W              86 89  200/  2/  4 1017.9R   1/ 6   2/ 6

$$
FLZ011-016>038-118-127-128-134-139-239-290500-
NORTH FLORIDA

CITY           SKY/WX    TMP DP  RH WIND       PRES   REMARKS
MARIANNA       CLEAR     80  76  87 SW6       30.03S
TALLAHASSEE    CLEAR     82  76  81 CALM      30.05R
PERRY          CLEAR     79  75  86 CALM      30.05S
LIVE OAK         N/A     81  77  89 CALM      30.06F
CROSS CITY       N/A     77  74  90 S3        30.05R
LAKE CITY      FAIR      81  73  78 W5        30.05S
GAINESVILLE    CLEAR     81  73  76 CALM      30.05R
WILLISTON      FAIR      81  77  89 CALM      30.06R
PALATKA        MOCLDY    79  77  94 S3        30.05R
MAYPORT NAS    CLOUDY    80  75  84 S8        30.03R
JACKSONVILLE   PTCLDY    80  77  90 SW3       30.03R
JAX NAS        PTCLDY    87  75  67 S5        30.05R HX  96
JAX CECIL      CLEAR     75  73  94 CALM      30.04S
FERNANDINA BEA FAIR      82  77  83 S3        30.02S
ST AUGUSTINE   CLOUDY    82  73  74 CALM      30.05R
PALM COAST     FAIR      78  76  94 NW3       30.05R

STATION/POSITION SKY/WX   TEMP    WIND        PRES    WAVE   SWELL
                          AIR SEA DIR/SP/G            HT/PER HT/PER
                          (F)     (DEG/KT/KT) (MB)    (FT/S) (FT/S)
SHELL POINT                86     250/ 11/ 13 1016.1
KEATON BEACH               87     270/  8/  9 1017.1R
CEDAR KEY                  86     290/  5/  6 1017.9R
FERNANDINA                    89  170/  4/  5   N/A
30.7N   81.3W                 86                N/A     2/ 4
MAYPORT                       88  200/  4/  5   N/A
31.4N   80.9W              86 87  180/ 16/ 19 1015.7R   3/ 4   2/ 7
ST AUGUSTINE               82 86  160/  8/  9 1018.2R

$$
FLZ040-043>046-052-053-057-058-063-144-290500-
INTERIOR CENTRAL FLORIDA

CITY           SKY/WX    TMP DP  RH WIND       PRES   REMARKS
OCALA          CLEAR     79  73  83 CALM      30.05S
THE VILLAGES     N/A     82  75  78 MISG      29.96S
LEESBURG       CLEAR     82  73  74 CALM      30.06S
SANFORD        CLEAR     84  72  67 S8        30.05S
ORLANDO EXEC   PTCLDY    82  74  76 SE6       30.06R
ORLANDO INTL   PTCLDY    82  72  71 S9        30.06R
KISSIMMEE      CLEAR     83  76  79 S7        30.07R
WINTER HAVEN   PTCLDY    83  72  69 CALM      30.07S
LAKELAND       PTCLDY    81  75  83 CALM      30.07R
BARTOW         FAIR      79  73  83 CALM      30.06S
OKEECHOBEE     CLEAR     77  75  94 CALM      30.06F

$$
FLZ041-047-054-059-064-141-147-290500-
EAST CENTRAL FLORIDA

CITY           SKY/WX    TMP DP  RH WIND       PRES   REMARKS
DAYTONA BEACH  PTCLDY    82  74  76 S6        30.06R
JFK SPACE CTR  CLEAR     82  75  80 S8        30.05R
CAPE CANAVERAL CLEAR     82  76  81 S8        30.04R
PATRICK AFB    CLEAR     83  75  77 SE10      30.05R
MELBOURNE      CLEAR     81  74  79 S7        30.06S
VERO BEACH     CLEAR     81  75  82 S6        30.06F
FT PIERCE      CLEAR     78  75  90 CALM      30.06S
STUART         CLEAR     84  79  84 S3        30.07S HX  96

STATION/POSITION SKY/WX   TEMP    WIND        PRES    WAVE   SWELL
                          AIR SEA DIR/SP/G            HT/PER HT/PER
                          (F)     (DEG/KT/KT) (MB)    (FT/S) (FT/S)
28.5N   80.2W              84 84  160/ 14/ 16 1017.9R
28.9N   78.5W              85 87  210/  8/ 10 1017.8R
TRIDENT PIER                  87  170/ 10/ 14   N/A
28.4N   80.5W                 82                N/A     2/ 4
27.5N   80.2W                 83                N/A     1/ 7

$$
FLZ050-056-061-142-242-148-248-149-249-151-251-155-255-
160-260-290500-
WEST CENTRAL FLORIDA

CITY           SKY/WX    TMP DP  RH WIND       PRES   REMARKS
CRYSTAL RIVER  FAIR      77  77 100 CALM      30.05S
INVERNESS      FAIR      79  77  94 CALM      30.06R
BROOKSVILLE    CLEAR     79  75  87 CALM      30.06S
ZEPHYRHILLS    FAIR      73  69  88 CALM      30.06S
CLEARWATER AIR FAIR      82  73  74 CALM      30.06R
ST PETE CLEARW MOCLDY    85  71  63 SW3       30.06R
TAMPA INTL     CLOUDY    85  74  69 CALM      30.06S
TAMPA EXEC     CLOUDY    81  77  89 CALM      30.06S
PLANT CITY     CLOUDY    82  77  83 CALM      30.08R
MACDILL AFB    CLOUDY    84  76  77 SW2       30.06R
PETER O KNIGHT CLOUDY    88  75  66 CALM      30.06R HX  97
ST PETERSBURG  CLOUDY    86  73  65 NW5       30.04S
SARASOTA       CLOUDY    86  74  67 NW3       30.05R
VENICE         NOT AVBL

STATION/POSITION SKY/WX   TEMP    WIND        PRES    WAVE   SWELL
                          AIR SEA DIR/SP/G            HT/PER HT/PER
                          (F)     (DEG/KT/KT) (MB)    (FT/S) (FT/S)
27.3N   84.2W                 87                N/A     2/ 6
CLEARWATER BEACH              90  310/  5/  6   N/A
MIDDLE TAMPA BAY                  310/  5/  6   N/A
VENICE                     83 90     CALM     1017.5R

$$
FLZ066-069-070-075>078-162-262-165-265-290500-
SOUTHWEST FLORIDA AND KEYS

CITY           SKY/WX    TMP DP  RH WIND       PRES   REMARKS
PUNTA GORDA    PTCLDY    78  76  93 CALM      30.07S
FT MYERS       MOCLDY    81  76  84 CALM      30.05S
SOUTHWEST INTL MOCLDY    82  76  81 S3        30.05F
NAPLES         MOCLDY    79  76  90 E5        30.05S
MARCO ISLAND   PTCLDY   N/A N/A N/A CALM      30.05S
MARATHON       PTCLDY    84  79  85 SE6       30.04S HX  96
KEY WEST NAS   PTCLDY    84  79  85 SE10      30.04F HX  96
KEY WEST INTL  MOCLDY    85  81  88 SE10      30.04F HX 100

STATION/POSITION SKY/WX   TEMP    WIND        PRES    WAVE   SWELL
                          AIR SEA DIR/SP/G            HT/PER HT/PER
                          (F)     (DEG/KT/KT) (MB)    (FT/S) (FT/S)
NAPLES                        89                N/A
26.0N   85.6W              84 86   90/  8/ 10 1018.0R   2/ 5   2/ 5
DRY TORTUGAS               84     130/ 13/ 14 1017.5R
SAND KEY                   84     150/ 14/ 17 1017.7F
LONG KEY                   84 87  130/ 10/ 11 1017.8R
MOLASSES REEF              85 85  110/ 11/ 12 1017.8

$$
FLZ067-068-071>074-168-172>174-290500-
SOUTHEAST FLORIDA

CITY           SKY/WX    TMP DP  RH WIND       PRES   REMARKS
W PALM BEACH   PTCLDY    85  77  77 S8        30.06R HX  95
FT LAUDER-EXEC CLEAR     84  75  74 SE6       30.05F
FT LAUDERDALE  PTCLDY    85  76  74 S5        30.04R
POMPANO BEACH  CLEAR     85  76  74 SE7       30.05F
PEMBROKE PINES CLEAR     85  76  74 SE5       30.06F
OPA LOCKA      CLEAR     84  76  76 SE7       30.05F
MIAMI          PTCLDY    84  77  79 SE7       30.05F
WEST KENDALL   CLEAR     83  76  79 SE3       30.05F
HOMESTEAD      CLEAR     83  77  81 SE3       30.05R

STATION/POSITION SKY/WX   TEMP    WIND        PRES    WAVE   SWELL
                          AIR SEA DIR/SP/G            HT/PER HT/PER
                          (F)     (DEG/KT/KT) (MB)    (FT/S) (FT/S)
PORT EVERGLADES            86     140/  7/ 11 1017.8R
VIRGINIA KEY                  90  130/  6/  9   N/A
LAKE WORTH                        160/ 11/ 12   N/A
FOWEY ROCKS                85 86  140/ 11/ 12 1018.0F
SETTLEMENT POINT           84     180/  7/  9 1018.4R

$$




USA.gov is the U.S. government's official web portal to all federal, state and local government web resources and services.